NOZ1972 ENGM-ENEV

Flight info

Callsign NOZ1972
Flight time N/A
Altitude 36000
Route RIBBE DCT GIGNI DCT SOMUB DCT TUXOT DCT VABOT DCT PENNO
Aircraft B738/M-SDE2E3FGHIRWXY/LB1

Departure

Time 2026-05-01 14:22
Airport Oslo-Gardermoen International Airport (ENGM)

Arrival

Time N/A
Airport Harstad/Narvik Airport (ENEV)
Time Latitude Longitude Altitude Speed Heading
2026-05-01 13:49 60.19396 11.08828 679 ft 0 kts 196°
2026-05-01 13:54 60.19396 11.08829 679 ft 0 kts 196°
2026-05-01 14:05 60.19397 11.08829 706 ft 0 kts 196°
2026-05-01 14:12 60.19410 11.08836 680 ft 4 kts 188°
2026-05-01 14:12 60.19428 11.08849 680 ft 3 kts 227°
2026-05-01 14:12 60.19440 11.08891 679 ft 4 kts 267°
2026-05-01 14:13 60.19436 11.08940 678 ft 2 kts 286°
2026-05-01 14:13 60.19436 11.08943 677 ft 1 kts 286°
2026-05-01 14:15 60.19456 11.08885 677 ft 14 kts 305°
2026-05-01 14:15 60.19516 11.08667 677 ft 20 kts 287°
2026-05-01 14:16 60.19605 11.08566 677 ft 16 kts 19°
2026-05-01 14:16 60.19748 11.08654 676 ft 28 kts 15°
2026-05-01 14:16 60.19964 11.08779 679 ft 35 kts 17°
2026-05-01 14:16 60.20199 11.08914 680 ft 34 kts 16°
2026-05-01 14:17 60.20397 11.09030 681 ft 25 kts 16°
2026-05-01 14:17 60.20535 11.09111 681 ft 20 kts 15°
2026-05-01 14:17 60.20673 11.09188 682 ft 24 kts 15°
2026-05-01 14:17 60.20872 11.09305 684 ft 34 kts 16°
2026-05-01 14:18 60.21098 11.09436 685 ft 33 kts 16°
2026-05-01 14:18 60.21311 11.09557 681 ft 31 kts 16°
2026-05-01 14:18 60.21479 11.09640 686 ft 19 kts 356°
2026-05-01 14:18 60.21554 11.09453 680 ft 15 kts 285°
2026-05-01 14:19 60.21560 11.09410 683 ft 0 kts 285°
2026-05-01 14:19 60.21560 11.09409 683 ft 1 kts 285°
2026-05-01 14:19 60.21569 11.09345 678 ft 6 kts 285°
2026-05-01 14:20 60.21573 11.09205 683 ft 15 kts 258°
2026-05-01 14:20 60.21500 11.09108 683 ft 0 kts 193°
2026-05-01 14:20 60.21497 11.09106 683 ft 0 kts 193°
2026-05-01 14:21 60.21393 11.09049 682 ft 54 kts 196°
2026-05-01 14:22 60.19685 11.07928 1210 ft 171 kts 204°
2026-05-01 14:22 60.18511 11.07013 2244 ft 187 kts 198°
2026-05-01 14:22 60.17177 11.06190 2629 ft 227 kts 206°
2026-05-01 14:22 60.15998 11.03699 3023 ft 260 kts 244°
2026-05-01 14:23 60.15268 11.00470 4426 ft 247 kts 246°
2026-05-01 14:23 60.14576 10.97354 5579 ft 243 kts 250°
2026-05-01 14:23 60.14290 10.94055 6476 ft 246 kts 270°
2026-05-01 14:23 60.14493 10.90641 7400 ft 247 kts 278°
2026-05-01 14:24 60.14818 10.87229 8291 ft 250 kts 278°
2026-05-01 14:24 60.15385 10.83903 9191 ft 258 kts 297°
2026-05-01 14:24 60.16603 10.81177 10102 ft 269 kts 316°
2026-05-01 14:24 60.18326 10.79418 10684 ft 297 kts 338°
2026-05-01 14:25 60.20472 10.78749 10896 ft 329 kts 347°
2026-05-01 14:25 60.22854 10.79254 11177 ft 367 kts 15°
2026-05-01 14:25 60.25063 10.82080 11855 ft 386 kts 40°
2026-05-01 14:25 60.26966 10.85952 12620 ft 392 kts 42°
2026-05-01 14:26 60.28830 10.89883 13344 ft 397 kts 43°
2026-05-01 14:26 60.32713 10.98025 14744 ft 406 kts 42°
2026-05-01 14:26 60.34688 11.02107 15469 ft 407 kts 42°
2026-05-01 14:27 60.36684 11.06206 16178 ft 411 kts 41°
2026-05-01 14:27 60.38706 11.10348 16859 ft 414 kts 41°
2026-05-01 14:27 60.40656 11.14348 17500 ft 419 kts 41°
2026-05-01 14:28 60.44934 11.22460 18711 ft 420 kts 27°
2026-05-01 14:28 60.47396 11.24726 19309 ft 412 kts 14°
2026-05-01 14:28 60.50104 11.26604 19937 ft 414 kts 13°
2026-05-01 14:28 60.52831 11.28450 20480 ft 418 kts 13°
2026-05-01 14:29 60.55607 11.30345 21027 ft 422 kts 13°
2026-05-01 14:29 60.58262 11.32190 21574 ft 424 kts 13°
2026-05-01 14:30 60.66654 11.38163 23185 ft 434 kts 13°
2026-05-01 14:30 60.69519 11.40220 23691 ft 438 kts 13°
2026-05-01 14:30 60.72317 11.42229 24079 ft 441 kts 13°
2026-05-01 14:31 60.78235 11.44882 24918 ft 432 kts 356°
2026-05-01 14:31 60.81223 11.45168 25380 ft 433 kts 355°
2026-05-01 14:31 60.84240 11.45431 25795 ft 436 kts 355°
2026-05-01 14:31 60.87276 11.45723 26168 ft 439 kts 356°
2026-05-01 14:32 60.90343 11.46058 26561 ft 442 kts 356°
2026-05-01 14:32 60.93416 11.46425 26969 ft 444 kts 356°
2026-05-01 14:32 60.96468 11.46807 27367 ft 446 kts 356°
2026-05-01 14:32 60.99587 11.47201 27709 ft 449 kts 356°
2026-05-01 14:33 61.02716 11.47594 28051 ft 452 kts 356°
2026-05-01 14:33 61.05860 11.47989 28396 ft 454 kts 356°
2026-05-01 14:33 61.09031 11.48323 28734 ft 455 kts 354°
2026-05-01 14:33 61.12189 11.48409 29067 ft 456 kts 353°
2026-05-01 14:34 61.15376 11.48371 29347 ft 458 kts 352°
2026-05-01 14:34 61.18486 11.48311 29750 ft 459 kts 352°
2026-05-01 14:34 61.21684 11.48268 30101 ft 460 kts 352°
2026-05-01 14:34 61.24846 11.48252 30378 ft 462 kts 352°
2026-05-01 14:35 61.28066 11.48257 30712 ft 462 kts 352°
2026-05-01 14:35 61.31278 11.48274 31130 ft 460 kts 352°
2026-05-01 14:35 61.34481 11.48292 31560 ft 458 kts 352°
2026-05-01 14:35 61.37676 11.48305 31929 ft 458 kts 352°
2026-05-01 14:36 61.40861 11.48314 32276 ft 457 kts 352°
2026-05-01 14:36 61.44021 11.48323 32627 ft 456 kts 353°
2026-05-01 14:36 61.47198 11.48335 33055 ft 454 kts 353°
2026-05-01 14:36 61.50367 11.48346 33369 ft 454 kts 353°
2026-05-01 14:37 61.53522 11.48354 33666 ft 454 kts 353°
2026-05-01 14:37 61.56645 11.48363 34050 ft 452 kts 353°
2026-05-01 14:37 61.59789 11.48375 34396 ft 450 kts 353°
2026-05-01 14:37 61.62911 11.48385 34703 ft 449 kts 353°
2026-05-01 14:38 61.66038 11.48395 34976 ft 448 kts 353°
2026-05-01 14:38 61.69151 11.48404 35231 ft 448 kts 353°
2026-05-01 14:38 61.72293 11.48412 35421 ft 449 kts 353°
2026-05-01 14:39 61.78577 11.48422 35505 ft 459 kts 353°
2026-05-01 14:39 61.85019 11.48442 35596 ft 465 kts 353°
2026-05-01 14:40 61.91335 11.48469 35789 ft 467 kts 353°
2026-05-01 14:40 61.94379 11.48482 35957 ft 466 kts 353°
2026-05-01 14:40 61.97729 11.48495 36061 ft 465 kts 353°
2026-05-01 14:41 62.04255 11.49153 36074 ft 471 kts 358°
2026-05-01 14:41 62.10745 11.50721 36065 ft 471 kts 359°
2026-05-01 14:42 62.17261 11.52376 36053 ft 470 kts 359°
2026-05-01 14:42 62.23760 11.53933 36062 ft 469 kts 359°
2026-05-01 14:43 62.30260 11.55438 36053 ft 469 kts 359°
2026-05-01 14:43 62.36706 11.56925 36045 ft 468 kts 358°
2026-05-01 14:44 62.43197 11.58431 36053 ft 468 kts 358°
2026-05-01 14:44 62.52934 11.60708 36059 ft 468 kts 358°
2026-05-01 14:45 62.62610 11.62987 36056 ft 468 kts 358°
2026-05-01 14:46 62.69101 11.64524 36042 ft 468 kts 358°
2026-05-01 14:46 62.78834 11.66841 36033 ft 469 kts 358°
2026-05-01 14:47 62.85340 11.68397 36017 ft 470 kts 358°
2026-05-01 14:48 62.95085 11.70744 36013 ft 471 kts 358°
2026-05-01 14:48 63.04881 11.73119 36010 ft 473 kts 358°
2026-05-01 14:49 63.17956 11.76314 36002 ft 475 kts 358°
2026-05-01 14:50 63.31107 11.79558 36003 ft 475 kts 358°
2026-05-01 14:51 63.40880 11.84894 36030 ft 491 kts 12°
2026-05-01 14:52 63.50467 11.92967 36024 ft 492 kts 12°
2026-05-01 14:53 63.60110 12.00906 36020 ft 493 kts 12°
2026-05-01 14:53 63.66558 12.06171 36036 ft 493 kts 12°
2026-05-01 14:54 63.73009 12.11467 36042 ft 494 kts 12°
2026-05-01 14:54 63.79470 12.16802 36046 ft 494 kts 12°
2026-05-01 14:55 63.85890 12.22135 36049 ft 494 kts 12°
2026-05-01 14:55 63.92361 12.27538 36055 ft 495 kts 12°
2026-05-01 14:56 63.98822 12.32944 36058 ft 494 kts 12°
2026-05-01 14:56 64.05322 12.38080 36060 ft 493 kts 10°
2026-05-01 14:57 64.11794 12.43064 36061 ft 494 kts 10°
2026-05-01 14:57 64.21564 12.50705 36063 ft 494 kts 11°
2026-05-01 14:58 64.28075 12.55866 36062 ft 495 kts 11°
2026-05-01 14:58 64.34544 12.61022 36059 ft 495 kts 11°
2026-05-01 14:59 64.41071 12.66248 36065 ft 496 kts 11°
2026-05-01 14:59 64.47600 12.71502 36051 ft 496 kts 11°
2026-05-01 15:00 64.57362 12.79409 36066 ft 495 kts 11°
2026-05-01 15:01 64.63877 12.84714 36066 ft 495 kts 11°
2026-05-01 15:01 64.70387 12.90043 36060 ft 496 kts 11°
2026-05-01 15:02 64.76841 12.95396 36055 ft 497 kts 12°
2026-05-01 15:02 64.82258 13.00092 36064 ft 498 kts 13°
2026-05-01 15:03 64.88755 13.05822 36043 ft 498 kts 12°
2026-05-01 15:03 64.95248 13.11561 36045 ft 498 kts 13°
2026-05-01 15:04 65.01738 13.17296 36052 ft 498 kts 13°
2026-05-01 15:04 65.08241 13.23065 36039 ft 498 kts 13°
2026-05-01 15:05 65.14683 13.28811 36047 ft 497 kts 13°
2026-05-01 15:05 65.21172 13.34627 36045 ft 498 kts 13°
2026-05-01 15:06 65.27601 13.40421 36030 ft 499 kts 13°
2026-05-01 15:06 65.34116 13.46325 36031 ft 501 kts 13°
2026-05-01 15:07 65.40600 13.52233 36019 ft 501 kts 13°
2026-05-01 15:07 65.47121 13.58207 36013 ft 500 kts 13°
2026-05-01 15:08 65.53635 13.64207 36020 ft 500 kts 13°
2026-05-01 15:08 65.60155 13.70241 35999 ft 501 kts 13°
2026-05-01 15:09 65.66629 13.76266 35985 ft 502 kts 13°
2026-05-01 15:09 65.73144 13.82362 35985 ft 502 kts 13°
2026-05-01 15:10 65.79670 13.88503 35990 ft 502 kts 13°
2026-05-01 15:10 65.89457 13.97775 35984 ft 503 kts 14°
2026-05-01 15:11 65.99238 14.07117 35987 ft 503 kts 14°
2026-05-01 15:12 66.05713 14.13346 35975 ft 502 kts 14°
2026-05-01 15:12 66.15488 14.22813 35962 ft 500 kts 14°
2026-05-01 15:14 66.31570 14.38553 35979 ft 500 kts 14°
2026-05-01 15:14 66.38010 14.44917 35978 ft 501 kts 14°
2026-05-01 15:15 66.42207 14.49084 35967 ft 501 kts 14°
2026-05-01 15:16 66.55155 14.62041 35951 ft 502 kts 14°
2026-05-01 15:18 66.71422 14.78520 35917 ft 504 kts 14°
2026-05-01 15:19 66.84038 14.91506 35889 ft 480 kts 14°
2026-05-01 15:19 66.90282 14.97938 34867 ft 485 kts 14°
2026-05-01 15:19 66.93395 15.01165 34261 ft 486 kts 13°
2026-05-01 15:20 66.99688 15.07724 32957 ft 485 kts 13°
2026-05-01 15:20 67.02789 15.10983 32483 ft 481 kts 13°
2026-05-01 15:20 67.05878 15.14239 32003 ft 477 kts 13°
2026-05-01 15:21 67.08932 15.17465 31523 ft 473 kts 13°
2026-05-01 15:21 67.11930 15.20638 31076 ft 468 kts 12°
2026-05-01 15:21 67.14941 15.23829 30621 ft 465 kts 12°
2026-05-01 15:21 67.17921 15.26994 30186 ft 461 kts 12°
2026-05-01 15:22 67.23820 15.33271 29156 ft 455 kts 12°
2026-05-01 15:22 67.26732 15.36393 28699 ft 449 kts 12°
2026-05-01 15:22 67.29610 15.39487 28214 ft 445 kts 12°
2026-05-01 15:23 67.32428 15.42525 27789 ft 439 kts 12°
2026-05-01 15:23 67.35229 15.45554 27361 ft 432 kts 12°
2026-05-01 15:23 67.37990 15.48543 26903 ft 429 kts 12°
2026-05-01 15:23 67.40741 15.51520 26438 ft 426 kts 12°
2026-05-01 15:24 67.43473 15.54473 26010 ft 422 kts 12°
2026-05-01 15:24 67.46171 15.57396 25557 ft 419 kts 12°
2026-05-01 15:24 67.48851 15.60333 25139 ft 416 kts 12°
2026-05-01 15:24 67.51512 15.63254 24692 ft 414 kts 12°
2026-05-01 15:25 67.54160 15.66163 24275 ft 412 kts 12°
2026-05-01 15:25 67.56774 15.69034 23813 ft 412 kts 12°
2026-05-01 15:25 67.59408 15.71937 23389 ft 410 kts 12°
2026-05-01 15:25 67.62031 15.74832 22878 ft 409 kts 13°
2026-05-01 15:26 67.64653 15.77738 22402 ft 406 kts 13°
2026-05-01 15:26 67.67260 15.80639 21985 ft 404 kts 13°
2026-05-01 15:26 67.69844 15.83519 21522 ft 401 kts 13°
2026-05-01 15:26 67.72401 15.86378 21102 ft 398 kts 13°
2026-05-01 15:27 67.74939 15.89219 20677 ft 394 kts 13°
2026-05-01 15:27 67.77448 15.92035 20270 ft 390 kts 13°
2026-05-01 15:27 67.79909 15.94800 19854 ft 387 kts 13°
2026-05-01 15:28 67.84844 16.00366 19041 ft 382 kts 13°
2026-05-01 15:28 67.87262 16.03096 18648 ft 381 kts 14°
2026-05-01 15:28 67.89703 16.05862 18221 ft 381 kts 14°
2026-05-01 15:29 67.94572 16.11089 17291 ft 366 kts
2026-05-01 15:29 67.97009 16.12463 17005 ft 354 kts
2026-05-01 15:29 68.01814 16.14633 16180 ft 349 kts 360°
2026-05-01 15:30 68.06586 16.16845 15417 ft 346 kts
2026-05-01 15:31 68.15838 16.21414 13906 ft 341 kts
2026-05-01 15:31 68.20470 16.23752 13084 ft 339 kts
2026-05-01 15:32 68.25086 16.26094 12283 ft 336 kts
2026-05-01 15:32 68.29671 16.28432 11506 ft 333 kts
2026-05-01 15:33 68.36409 16.31883 10425 ft 328 kts
2026-05-01 15:34 68.42885 16.34222 9976 ft 294 kts 351°